Location: Joffre
(52.3362°N, 113.5373°W)
Time: 14:40:44
(UTC+00:00)

Envisat - Pass Details

Date: 29 November 2021
Orbit: 764 x 766 km, 98.2° (Epoch: 28 January)

Event Time Altitude Azimuth Distance (km) Brightness Sun altitude
Rises 11:57:01 0° 20° (NNE) 3,248 6.5 -29.9°
Reaches altitude 10° 11:59:33 10° 30° (NNE) 2,317 5.8 -29.5°
Maximum altitude 12:04:11 34° 95° (E) 1,251 4.6 -28.8°
Drops below altitude 10° 12:08:46 10° 160° (SSE) 2,300 5.7 -28.1°
Sets 12:11:16 0° 169° (S) 3,221 6.4 -27.7°
